AP893 Weather Reports


time (UTC)temp
C
wind
direction
speed
KPH
gust
KPH
rain 1hr
cm
rain 24hr
cm
rain mn
cm
humidity
%
barometer
mb
20260904214010 23 278 4.8 19.3 0.00 0.00 0.00 38 1017.4
20260904213009 23 191 1.6 19.3 0.00 0.00 0.00 40 1017.4
20260904212009 22 171 1.6 16.1 0.00 0.00 0.00 41 1017.4
20260904205010 23 214 1.6 19.3 0.00 0.00 0.00 44 1017.4
20260904204010 22 299 4.8 14.5 0.00 0.00 0.00 45 1017.3
20260904202011 22 250 4.8 19.3 0.00 0.00 0.00 48 1017.3
20260904201010 21 198 0.0 19.3 0.00 0.00 0.00 51 1017.2
20260904200011 21 352 4.8 19.3 0.00 0.00 0.00 54 1017.2
20260904195009 20 263 6.4 14.5 0.00 0.00 0.00 59 1017.2
20260904194010 20 346 6.4 20.9 0.00 0.00 0.00 61 1017.2
20260904193010 20 350 4.8 16.1 0.00 0.00 0.00 63 1017.3
20260904192010 18 332 6.4 20.9 0.00 0.00 0.00 66 1017.4
20260904191009 18 2 4.8 16.1 0.00 0.00 0.00 67 1017.4
20260904190010 18 343 4.8 12.9 0.00 0.00 0.00 69 1017.7
20260904185009 18 0 9.7 22.5 0.00 0.00 0.00 69 1017.5
20260904184009 18 310 3.2 19.3 0.00 0.00 0.00 71 1017.4
20260904183012 18 342 8.0 14.5 0.00 0.00 0.00 72 1017.5
20260904182010 18 12 4.8 9.7 0.00 0.00 0.00 74 1017.5
20260904181010 18 343 1.6 16.1 0.00 0.00 0.00 76 1017.5
20260904180009 18 8 8.0 12.9 0.00 0.00 0.00 77 1017.4
20260904175010 17 280 0.0 8.0 0.00 0.00 0.00 81 1017.4
20260904174009 17 318 0.0 9.7 0.00 0.00 0.00 82 1017.3
20260904173009 17 347 4.8 11.3 0.00 0.00 0.00 82 1017.3
20260904171010 16 274 1.6 4.8 0.00 0.00 0.00 90 1017.2
20260904170010 16 0 3.2 11.3 0.00 0.00 0.00 92 1017.1
20260904165009 15 355 4.8 12.9 0.00 0.00 0.00 94 1017.1
20260904164010 15 349 9.7 14.5 0.00 0.00 0.00 94 1017.0
20260904162010 15 4 4.8 14.5 0.00 0.00 0.00 92 1016.9
20260904161010 16 356 1.6 11.3 0.00 0.00 0.00 92 1016.7
20260904160009 15 357 3.2 11.3 0.00 0.00 0.00 92 1016.8
20260904155010 15 314 1.6 9.7 0.00 0.00 0.00 92 1016.7
20260904154009 15 3 1.6 8.0 0.00 0.00 0.00 93 1016.7
20260904153010 15 1 0.0 4.8 0.00 0.00 0.00 93 1016.6
20260904152010 15 0 1.6 11.3 0.00 0.00 0.00 93 1016.7
20260904151009 15 6 1.6 11.3 0.00 0.00 0.00 93 1016.6
20260904150010 15 329 0.0 0.0 0.00 0.00 0.00 93 1016.4
20260904145010 15 329 0.0 0.0 0.00 0.00 0.00 93 1016.3
20260904144009 15 329 0.0 0.0 0.00 0.00 0.00 94 1016.2
20260904143010 15 329 0.0 0.0 0.00 0.00 0.00 93 1016.1
20260904142009 15 329 0.0 0.0 0.00 0.10 0.00 93 1016.0
20260904141010 15 329 0.0 3.2 0.00 0.10 0.00 93 1016.0
20260904140009 15 322 0.0 0.0 0.00 0.10 0.00 92 1015.9
20260904135010 15 322 0.0 0.0 0.00 0.10 0.00 91 1015.8
20260904132010 15 322 0.0 0.0 0.00 0.10 0.00 90 1015.6
20260904131009 15 322 0.0 0.0 0.00 0.10 0.00 89 1015.6
20260904130010 15 322 0.0 3.2 0.00 0.10 0.00 89 1015.5
20260904125009 15 16 0.0 0.0 0.00 0.10 0.00 89 1015.3
20260904124010 15 16 0.0 0.0 0.00 0.10 0.00 89 1015.2
20260904123009 15 16 0.0 0.0 0.00 0.10 0.00 89 1015.1
20260904122009 15 16 0.0 0.0 0.00 0.10 0.00 89 1015.1
20260904121009 15 16 0.0 0.0 0.00 0.10 0.00 89 1015.1
20260904115009 15 16 0.0 0.0 0.00 0.10 0.00 90 1015.2
20260904113009 15 16 0.0 0.0 0.00 0.10 0.00 90 1015.2
20260904112009 15 16 0.0 0.0 0.00 0.10 0.00 90 1015.3
20260904111009 15 16 0.0 0.0 0.00 0.10 0.00 90 1015.2
20260904110010 15 16 0.0 0.0 0.00 0.10 0.00 90 1015.2
20260904105010 15 16 0.0 0.0 0.00 0.10 0.00 90 1015.1
20260904104010 15 16 0.0 0.0 0.00 0.10 0.00 89 1015.0
20260904103010 15 16 0.0 0.0 0.00 0.10 0.00 89 1015.0
20260904102010 15 16 0.0 0.0 0.00 0.10 0.00 89 1015.0
20260904101010 15 16 0.0 0.0 0.00 0.10 0.00 88 1014.9
20260904100009 15 16 0.0 0.0 0.00 0.10 0.00 87 1014.8
20260904094009 15 16 0.0 0.0 0.00 0.10 0.00 86 1014.7
20260904092010 16 16 0.0 0.0 0.00 0.10 0.00 84 1014.9
20260904091011 16 16 0.0 0.0 0.00 0.10 0.00 83 1014.9
20260904090009 16 16 0.0 0.0 0.00 0.10 0.00 82 1014.8
20260904085010 16 16 0.0 8.0 0.00 0.10 0.00 80 1014.8
20260904084011 16 297 1.6 9.7 0.00 0.10 0.00 77 1014.8
20260904082010 16 8 0.0 3.2 0.00 0.10 0.00 69 1014.8
20260904081010 16 353 0.0 0.0 0.00 0.10 0.00 65 1014.9
20260904080009 16 353 0.0 0.0 0.00 0.10 0.00 65 1014.8
20260904075010 16 353 0.0 0.0 0.00 0.10 0.00 64 1014.8
20260904074010 16 353 0.0 0.0 0.00 0.10 0.00 64 1014.8
20260904072010 16 353 0.0 0.0 0.00 0.10 0.00 67 1014.8
20260904070010 17 353 0.0 0.0 0.00 0.10 0.00 70 1015.0
20260904065009 17 353 0.0 0.0 0.00 0.10 0.10 69 1015.0
20260904064010 17 353 0.0 0.0 0.00 0.10 0.10 69 1015.1
20260904063009 17 353 0.0 0.0 0.00 0.10 0.10 69 1015.1
20260904062013 17 353 0.0 0.0 0.00 0.10 0.10 69 1015.1
20260904061010 17 353 0.0 0.0 0.00 0.10 0.10 69 1015.1
20260904060010 17 353 0.0 0.0 0.00 0.10 0.10 69 1015.3
20260904055009 17 353 0.0 0.0 0.00 0.10 0.10 69 1015.3
20260904054009 17 353 0.0 0.0 0.00 0.10 0.10 66 1015.5
20260904053010 17 353 0.0 0.0 0.00 0.10 0.10 64 1015.5
20260904052010 18 353 0.0 0.0 0.00 0.10 0.10 63 1015.5
20260904051010 18 353 0.0 0.0 0.00 0.10 0.10 62 1015.6
20260904045009 18 353 0.0 0.0 0.00 0.10 0.10 60 1015.7
20260904044010 18 353 0.0 0.0 0.00 0.10 0.10 60 1015.6
20260904043010 18 353 0.0 0.0 0.00 0.10 0.10 58 1015.7
20260904041009 19 353 0.0 0.0 0.00 0.10 0.10 55 1015.6
20260904035010 20 353 0.0 0.0 0.00 0.10 0.10 53 1015.5
20260904034010 20 353 0.0 0.0 0.00 0.10 0.10 51 1015.3
20260904033009 20 353 0.0 9.7 0.00 0.10 0.10 49 1015.3
20260904032009 20 349 1.6 8.0 0.00 0.10 0.10 46 1015.2
20260904031010 21 260 0.0 0.0 0.00 0.10 0.10 41 1015.2
20260904030010 21 260 0.0 0.0 0.00 0.10 0.10 38 1015.2
20260904025009 21 260 0.0 0.0 0.00 0.10 0.10 37 1015.2
20260904024010 21 260 0.0 0.0 0.00 0.10 0.10 36 1015.2
20260904023009 22 260 0.0 0.0 0.00 0.10 0.10 35 1015.3
20260904022009 22 260 0.0 0.0 0.00 0.10 0.10 34 1015.3
20260904021009 22 260 0.0 0.0 0.00 0.10 0.10 34 1015.5
20260904020009 22 260 0.0 0.0 0.00 0.10 0.10 33 1015.6
20260904014009 22 260 0.0 0.0 0.00 0.10 0.10 32 1015.6
20260904013009 23 260 0.0 0.0 0.00 0.10 0.10 31 1015.7
20260904012009 23 260 0.0 0.0 0.00 0.10 0.10 31 1015.7
20260904010009 23 8 0.0 11.3 0.00 0.10 0.10 32 1015.7
20260904005010 24 283 1.6 11.3 0.00 0.10 0.10 31 1015.8
20260904004009 24 330 1.6 9.7 0.00 0.10 0.10 29 1015.8
20260904003010 24 241 4.8 16.1 0.00 0.10 0.10 30 1015.8
20260904002009 23 189 1.6 12.9 0.00 0.10 0.10 35 1015.8
20260904001009 24 0 0.0 8.0 0.00 0.10 0.10 33 1015.9
20260904000009 24 179 3.2 12.9 0.00 0.10 0.10 34 1015.9
20260903235009 24 71 0.0 11.3 0.00 0.10 0.10 33 1016.0
20260903234009 24 1 1.6 12.9 0.00 0.10 0.10 35 1016.1
20260903233009 25 333 0.0 8.0 0.00 0.10 0.10 34 1016.3
20260903232009 25 322 3.2 14.5 0.00 0.10 0.10 35 1016.3
20260903231009 24 325 3.2 14.5 0.00 0.10 0.10 36 1016.3
20260903230009 24 62 0.0 16.1 0.00 0.10 0.10 38 1016.4
20260903225010 23 174 1.6 19.3 0.00 0.10 0.10 38 1016.7
20260903224011 23 26 4.8 19.3 0.00 0.10 0.10 38 1016.7
20260903223009 23 315 1.6 20.9 0.00 0.10 0.10 39 1016.8
20260903222011 23 126 4.8 14.5 0.00 0.10 0.10 38 1016.9
20260903221010 24 287 1.6 16.1 0.00 0.10 0.10 39 1016.9
20260903220009 24 289 4.8 12.9 0.00 0.10 0.10 38 1017.0
20260903215010 24 16 3.2 11.3 0.00 0.10 0.10 38 1017.0